Wind_Speed
29 29 29 29 29 29 29 30 30 30 29 29 29 29 29 29 29 29 29 28 28 28 28 28 29 28 28 29 28 28 29 29 29 29 28 28 28 28 28 28 28 27 27
31 31 31 31 30 30 30 30 30 30 30 30 31 31 31 31 31 30 30 30 30 30 31 31 31 31 31 31 31 31 30 31 31 31 31 30 31 31 30 30 30 30 30
33 33 33 33 32 31 31 31 31 31 31 30 31 32 32 33 33 33 32 33 32 32 32 32 32 32 32 33 33 33 33 32 32 32 32 33 33 33 33 33 32 32 32
34 34 34 34 34 33 33 32 32 32 32 32 32 32 33 33 34 33 33 33 33 34 33 33 33 34 34 34 34 34 33 33 33 33 34 34 34 35 34 34 35 35 35
34 34 35 35 35 35 35 34 34 33 33 33 33 33 33 33 34 34 34 34 34 34 34 34 35 35 35 35 36 36 36 35 35 35 35 35 36 36 36 36 36 36 37
35 35 35 36 36 36 35 35 35 35 34 34 34 34 35 35 34 34 34 35 35 35 35 35 35 36 36 36 37 37 37 37 37 37 38 38 38 38 38 38 38 38 38
36 36 36 37 36 36 36 36 36 36 36 36 36 36 36 36 35 35 35 36 36 36 36 36 37 37 37 38 38 38 38 38 38 39 40 40 39 40 40 40 41 40 40
37 37 37 38 37 37 37 37 37 37 37 38 38 37 38 37 37 37 37 37 38 38 38 37 37 38 38 39 40 41 41 40 40 41 41 41 41 42 42 42 42 43 42
37 37 37 38 38 37 38 38 38 38 38 38 38 38 38 38 38 38 39 39 39 40 40 40 40 40 40 40 41 42 43 42 42 42 43 43 43 44 44 44 44 45 45
37 38 38 38 38 39 39 39 39 39 38 39 39 39 39 39 39 39 39 40 41 41 41 41 41 42 42 41 42 43 43 44 44 44 45 45 46 46 45 45 46 46 46
38 38 38 38 39 39 39 39 39 40 40 40 40 40 40 41 40 40 40 40 41 41 42 42 42 42 42 43 43 43 44 44 44 45 46 46 47 47 48 48 48 48 47
39 39 39 39 39 39 39 40 40 40 40 41 41 42 41 41 41 42 41 41 42 42 43 43 44 43 43 43 43 43 44 44 44 45 46 46 46 47 48 48 48 48 48
40 40 40 40 40 40 40 41 41 41 42 42 42 42 43 43 43 43 43 43 43 43 44 44 45 45 44 44 44 44 44 45 45 45 46 46 46 47 48 48 48 47 47
41 41 42 41 41 41 41 42 42 43 43 44 43 44 44 44 44 45 45 44 44 44 44 45 45 45 45 46 46 46 46 46 46 46 46 46 47 47 48 48 48 47 47
43 43 43 42 42 42 43 43 43 44 44 44 44 44 45 45 44 45 45 45 45 45 45 45 46 46 46 46 46 46 45 46 46 46 46 45 46 46 46 46 47 47 47
44 43 43 43 43 43 44 44 44 45 45 44 44 45 45 45 44 45 45 45 45 45 45 45 45 45 46 46 45 45 45 45 45 45 45 45 46 46 47 48 48 48 49
43 43 44 44 44 44 44 44 44 44 44 44 44 44 44 44 44 44 45 45 45 45 45 44 44 44 44 45 45 45 46 46 45 45 45 45 46 47 48 49 49 50 50
42 42 42 43 43 44 44 45 45 45 45 45 44 44 44 44 45 45 46 46 45 45 45 43 42 43 43 44 45 45 45 46 46 46 46 46 47 48 49 49 49 49 50
44 43 43 42 43 43 44 45 45 45 45 44 44 44 44 44 44 44 44 44 44 44 43 42 42 42 43 44 44 45 45 46 47 47 46 47 48 48 49 49 49 49 50
45 44 44 44 43 43 44 44 45 45 44 44 43 43 43 43 43 43 43 43 43 43 43 42 42 43 43 44 44 45 46 47 46 46 46 47 47 48 48 49 50 50 51
46 46 46 45 45 45 45 45 45 45 45 44 44 43 43 43 43 43 43 43 43 43 44 44 44 44 44 45 45 45 46 45 45 46 46 46 47 48 49 50 50 51 52
46 46 46 46 46 46 46 46 46 46 45 45 44 44 44 44 44 44 44 44 44 44 45 45 45 45 45 45 45 45 45 45 46 46 46 46 47 48 49 50 51 51 51
45 46 47 47 47 46 46 46 46 46 46 46 46 45 45 45 45 45 45 45 45 45 46 46 46 46 45 45 45 45 45 46 46 46 47 47 47 48 49 49 50 50 50
45 46 46 46 46 47 47 47 47 47 47 46 46 46 45 45 45 45 46 46 46 46 46 46 45 44 44 44 45 46 46 47 46 46 47 48 48 49 49 49 49 49 49
45 45 46 46 46 46 46 46 46 46 46 46 45 46 45 45 45 45 45 45 45 45 45 44 44 44 44 44 45 45 46 46 46 46 46 47 48 48 47 47 47 47 48
43 44 44 44 44 45 45 45 45 45 45 45 45 45 45 45 45 44 44 44 44 44 43 43 44 43 43 44 44 44 45 45 45 45 44 45 45 45 44 44 45 45 46
Wind_Direction
247 248 247 246 246 246 246 245 246 247 249 250 250 250 249 249 249 250 251 251 251 251 251 252 253 254 256 256 257 259 259 260 258 257 257 258 259 259 261 262 264 266 268
248 248 248 247 246 246 247 247 247 247 249 250 250 250 251 251 251 251 252 252 253 253 253 253 253 254 255 257 258 259 260 260 259 257 258 259 260 260 261 262 264 266 268
248 248 248 248 247 247 247 248 247 248 249 249 250 250 251 252 253 253 254 254 254 254 254 254 254 255 256 257 258 260 260 260 259 259 259 260 261 262 262 262 264 265 267
250 250 249 248 247 247 247 248 249 249 249 250 250 250 251 253 254 254 255 255 256 255 255 255 256 257 258 259 259 260 261 261 261 261 261 261 262 262 262 263 264 265 267
250 250 249 248 247 247 247 248 250 250 250 251 251 251 252 253 254 254 255 255 256 256 256 257 258 258 259 260 261 261 262 263 262 262 262 263 263 263 263 264 265 266 267
249 250 249 248 247 247 247 248 249 250 250 251 252 252 253 254 255 255 255 256 255 255 256 257 259 259 260 260 261 262 263 263 263 263 264 264 265 265 266 266 266 267 268
249 250 250 249 247 247 248 248 249 250 250 251 252 253 253 254 255 255 256 256 256 256 257 258 260 261 261 261 262 263 264 264 266 266 265 265 266 266 267 268 268 269 268
249 250 250 249 248 248 248 249 250 251 251 252 253 253 254 255 256 256 256 257 257 257 258 259 260 261 262 263 264 265 264 266 266 266 266 266 267 267 267 268 269 270 269
249 250 250 249 248 248 248 249 250 251 252 253 253 255 256 257 258 257 258 258 259 259 259 259 260 261 263 264 264 265 265 266 267 266 266 266 266 267 268 268 269 270 270
250 250 250 250 249 249 249 250 251 252 253 254 255 256 257 258 259 260 260 260 260 260 261 260 261 263 264 265 266 266 265 266 267 267 267 266 266 267 267 268 269 270 270
249 250 250 251 250 250 250 251 252 253 254 256 256 257 259 260 260 260 261 262 262 262 262 262 262 264 265 266 267 267 266 266 267 267 268 267 267 267 268 268 269 270 271
250 251 251 251 250 250 251 252 254 255 256 257 257 258 260 260 260 261 261 262 262 263 263 264 264 265 267 268 267 267 268 269 269 268 267 267 268 268 269 269 270 271 271
250 251 252 251 251 251 252 254 255 256 257 258 259 260 260 261 262 262 262 262 263 264 264 265 265 267 267 267 267 268 268 269 269 269 268 268 268 268 269 270 271 271 272
250 251 251 252 252 252 254 255 256 257 258 258 260 262 262 262 262 262 262 263 264 264 265 265 266 267 267 267 267 268 268 268 268 268 269 269 269 270 269 270 270 271 272
250 251 252 252 254 254 256 257 258 259 260 261 261 262 261 262 262 262 262 263 265 265 265 266 266 266 267 267 268 268 268 268 268 268 269 270 269 269 269 270 271 271 272
251 252 252 253 254 255 257 258 260 260 261 261 261 263 263 263 262 262 262 263 264 265 266 266 266 267 267 268 268 267 267 268 268 269 270 271 270 270 271 271 272 272 272
251 253 254 254 255 256 257 258 259 259 260 260 261 262 263 263 262 262 262 264 265 265 266 266 267 268 268 269 268 268 267 268 268 269 270 271 271 271 272 273 274 274 273
252 253 253 254 256 257 258 259 260 260 261 261 261 262 263 264 264 264 264 265 266 266 266 267 267 268 268 268 268 268 267 267 268 269 270 271 272 272 272 274 275 274 274
253 254 254 256 257 258 260 260 261 261 261 261 262 262 263 264 264 265 265 266 266 266 266 266 267 268 269 269 268 268 268 268 269 269 270 270 272 272 273 274 274 275 276
253 254 255 257 258 259 259 260 260 260 261 262 263 263 263 264 264 265 265 266 266 266 266 267 268 270 270 271 270 270 270 270 269 269 270 271 272 272 272 273 273 274 275
253 254 256 257 258 259 259 259 260 260 260 261 262 263 263 263 264 264 265 265 265 266 267 268 270 271 272 271 271 271 271 271 269 269 270 271 272 272 273 274 275 276 276
254 254 255 257 258 259 259 259 260 259 260 261 262 263 263 263 263 264 264 265 265 266 267 268 271 273 273 272 272 271 271 271 270 269 270 271 273 274 274 276 276 276 276
253 254 256 257 258 259 259 260 259 259 259 260 262 262 263 263 263 263 264 265 265 268 269 269 270 271 271 271 271 271 271 271 271 270 270 272 273 274 276 276 276 276 277
254 255 256 256 257 257 258 259 259 259 259 260 262 262 262 262 263 264 264 264 266 268 269 270 271 271 271 271 271 271 271 272 271 271 272 272 273 274 275 276 276 277 278
254 255 256 256 256 257 258 258 259 259 259 260 261 262 262 262 263 264 264 265 266 267 268 269 270 270 270 271 271 272 272 272 271 272 272 274 274 274 274 275 276 277 278
255 256 257 257 256 257 257 258 259 260 260 260 261 261 263 263 263 263 264 266 267 266 266 267 268 269 270 271 271 272 273 273 273 273 273 275 275 274 273 275 277 278 278
Height
5793 5795 5796 5798 5800 5801 5803 5804 5806 5807 5809 5810 5811 5812 5813 5815 5817 5818 5819 5820 5822 5823 5824 5826 5827 5828 5829 5830 5831 5831 5832 5833 5833 5834 5835 5835 5835 5836 5836 5836 5836 5837 5836
5786 5788 5790 5791 5793 5795 5797 5798 5800 5801 5802 5803 5805 5806 5807 5809 5810 5812 5813 5814 5816 5817 5818 5820 5821 5822 5823 5824 5825 5825 5826 5827 5827 5828 5829 5829 5829 5830 5830 5830 5831 5831 5830
5779 5781 5782 5784 5786 5788 5790 5792 5793 5794 5796 5797 5798 5799 5801 5802 5804 5805 5807 5808 5809 5811 5812 5813 5815 5816 5817 5818 5818 5819 5820 5820 5821 5821 5822 5823 5823 5823 5824 5824 5824 5824 5824
5771 5773 5775 5777 5779 5781 5783 5785 5786 5787 5789 5790 5791 5793 5794 5795 5797 5798 5800 5801 5803 5804 5805 5807 5808 5809 5810 5811 5812 5812 5813 5813 5814 5815 5815 5816 5816 5816 5816 5817 5817 5817 5817
5763 5765 5767 5769 5771 5773 5775 5777 5779 5780 5782 5783 5785 5786 5787 5788 5790 5791 5793 5794 5795 5797 5798 5800 5801 5802 5803 5804 5804 5805 5806 5806 5807 5807 5808 5808 5808 5809 5809 5809 5809 5810 5810
5755 5757 5759 5761 5763 5765 5767 5769 5771 5772 5774 5776 5777 5779 5780 5782 5783 5784 5785 5787 5788 5790 5791 5792 5793 5794 5795 5796 5796 5797 5798 5798 5799 5799 5800 5800 5800 5801 5801 5801 5801 5801 5801
5746 5748 5750 5752 5755 5757 5759 5761 5763 5765 5766 5768 5770 5771 5773 5774 5776 5777 5778 5779 5781 5782 5783 5784 5785 5786 5787 5788 5788 5789 5789 5790 5790 5791 5791 5791 5792 5792 5792 5792 5792 5792 5792
5737 5739 5742 5744 5746 5748 5751 5753 5755 5756 5758 5760 5762 5763 5765 5767 5768 5769 5770 5771 5773 5774 5775 5776 5777 5778 5779 5779 5780 5780 5780 5781 5781 5782 5782 5782 5783 5783 5783 5783 5783 5783 5783
5728 5730 5733 5735 5737 5740 5742 5744 5746 5748 5750 5752 5753 5755 5757 5758 5760 5761 5762 5763 5764 5765 5766 5767 5768 5769 5770 5770 5770 5771 5771 5771 5772 5772 5772 5772 5773 5773 5773 5773 5773 5773 5773
5719 5721 5723 5726 5728 5731 5733 5735 5737 5739 5741 5743 5744 5746 5748 5749 5751 5752 5753 5754 5755 5756 5757 5758 5759 5759 5760 5760 5760 5761 5761 5761 5761 5762 5762 5762 5762 5762 5762 5762 5762 5762 5762
5710 5712 5714 5717 5719 5721 5724 5726 5728 5730 5732 5733 5735 5736 5738 5739 5741 5742 5744 5745 5745 5746 5747 5748 5749 5749 5750 5750 5750 5750 5750 5750 5750 5751 5751 5751 5751 5751 5751 5751 5751 5751 5751
5701 5703 5705 5707 5710 5712 5714 5716 5718 5721 5722 5724 5725 5727 5728 5730 5731 5732 5734 5735 5735 5736 5736 5737 5738 5738 5739 5739 5739 5740 5739 5739 5739 5739 5739 5739 5739 5739 5739 5739 5739 5739 5739
5691 5693 5696 5698 5700 5703 5705 5707 5709 5711 5712 5714 5715 5717 5718 5719 5720 5722 5723 5724 5725 5725 5725 5726 5727 5727 5728 5728 5728 5728 5728 5728 5728 5728 5728 5728 5728 5728 5728 5728 5727 5727 5727
5681 5683 5686 5688 5691 5693 5695 5697 5699 5700 5702 5703 5704 5705 5707 5708 5709 5710 5712 5712 5713 5714 5715 5715 5716 5716 5716 5716 5716 5716 5716 5716 5716 5716 5716 5716 5716 5716 5716 5716 5716 5716 5716
5671 5673 5675 5678 5681 5683 5685 5686 5688 5690 5691 5692 5693 5694 5695 5696 5697 5699 5700 5701 5702 5703 5704 5704 5704 5704 5704 5704 5704 5704 5704 5704 5704 5704 5704 5704 5704 5704 5703 5703 5703 5704 5703
5660 5662 5665 5667 5670 5672 5674 5676 5677 5679 5680 5681 5682 5682 5683 5685 5685 5687 5688 5689 5689 5690 5692 5693 5693 5693 5692 5692 5692 5691 5692 5692 5692 5692 5692 5692 5692 5692 5691 5691 5691 5691 5691
5650 5652 5654 5657 5659 5661 5663 5665 5666 5667 5669 5669 5670 5671 5672 5673 5673 5675 5676 5677 5677 5678 5679 5681 5681 5681 5681 5681 5680 5680 5680 5680 5681 5681 5681 5680 5680 5680 5679 5679 5678 5678 5678
5638 5641 5643 5646 5648 5649 5651 5653 5654 5656 5657 5658 5659 5659 5660 5661 5662 5663 5664 5665 5666 5667 5667 5669 5669 5669 5670 5669 5669 5669 5669 5669 5669 5669 5669 5668 5668 5668 5667 5666 5665 5665 5665
5627 5630 5632 5634 5636 5638 5639 5641 5642 5644 5645 5646 5647 5648 5649 5649 5651 5652 5652 5653 5654 5655 5656 5657 5658 5658 5658 5657 5657 5657 5657 5657 5657 5657 5656 5656 5656 5655 5655 5654 5653 5652 5652
5616 5618 5620 5622 5624 5626 5628 5629 5631 5632 5633 5634 5635 5636 5637 5639 5640 5641 5641 5642 5643 5644 5644 5645 5646 5646 5646 5645 5645 5645 5645 5645 5645 5644 5644 5644 5643 5643 5642 5641 5640 5640 5639
5604 5606 5608 5610 5612 5614 5616 5617 5619 5620 5622 5623 5624 5625 5626 5627 5628 5629 5630 5631 5632 5632 5633 5633 5634 5634 5634 5634 5634 5633 5633 5632 5632 5632 5632 5632 5631 5630 5629 5628 5627 5626 5625
5591 5593 5596 5598 5600 5602 5604 5605 5606 5608 5610 5611 5613 5614 5615 5616 5617 5618 5619 5619 5620 5621 5621 5621 5622 5622 5621 5621 5621 5620 5620 5620 5620 5621 5619 5619 5618 5617 5616 5615 5614 5612 5610
5578 5581 5583 5585 5587 5589 5591 5592 5594 5595 5597 5599 5601 5602 5603 5604 5605 5606 5607 5607 5608 5608 5609 5609 5609 5609 5609 5609 5608 5608 5607 5607 5607 5607 5606 5606 5605 5604 5603 5601 5600 5598 5596
5566 5568 5570 5572 5574 5576 5578 5579 5581 5583 5585 5587 5589 5590 5591 5592 5593 5594 5595 5595 5596 5596 5596 5596 5597 5596 5596 5595 5595 5595 5594 5594 5594 5594 5593 5592 5592 5590 5589 5587 5585 5584 5582
5554 5555 5557 5559 5561 5563 5565 5566 5568 5570 5572 5574 5576 5578 5579 5580 5581 5581 5582 5583 5583 5584 5583 5583 5583 5583 5583 5583 5582 5582 5582 5581 5581 5581 5580 5579 5578 5576 5575 5574 5572 5570 5568
5541 5543 5545 5546 5548 5550 5552 5553 5555 5557 5560 5562 5563 5564 5566 5567 5567 5568 5569 5570 5570 5571 5571 5571 5571 5571 5571 5571 5570 5570 5569 5569 5568 5568 5567 5566 5565 5563 5563 5562 5560 5558 5556